Theta_e
320 321 321 322 322 324 325 324 327 327 327 327 327 328 329 330 330 332 333 334 334 334 334 335 334 333 332 332 331 330 327 321 318 316 314 319 326 336 330 331 336 334 331 319 316 313 312 315 315 317 315 312 311 312 315 314 312 308 300 298 297 297 298 301 302 301 299 297 298 301 301 301 300 303 305 306 304 304 306 312 314 320 320 324 325 329 330 330
320 321 321 321 322 323 324 324 326 327 326 327 327 327 328 329 330 331 333 333 334 334 333 334 333 332 332 331 331 329 323 319 315 314 315 328 332 334 333 333 335 333 328 315 313 311 310 312 312 316 311 308 315 309 314 310 311 302 298 297 296 300 303 304 301 300 297 297 299 301 300 301 302 302 304 301 301 302 303 308 312 315 319 324 326 328 328 328
319 320 321 321 321 323 324 325 324 327 326 327 327 328 328 327 328 329 332 333 333 334 333 333 333 332 331 331 330 327 320 316 314 311 317 334 332 333 334 335 335 333 318 315 312 313 311 312 312 314 312 308 311 306 310 307 309 303 299 295 297 305 305 303 302 300 300 300 300 298 302 301 303 303 304 301 299 300 301 304 307 314 317 320 323 326 327 327
319 320 321 321 321 323 324 325 324 326 326 326 326 327 328 327 327 329 331 332 333 333 333 333 332 331 330 330 329 324 319 315 308 314 321 333 332 332 334 335 335 330 318 318 316 312 313 315 313 314 313 310 310 310 305 307 305 304 300 297 301 306 303 301 301 300 300 301 299 298 299 299 301 302 303 300 299 298 300 308 309 311 319 321 323 325 326 326
318 319 320 321 321 323 324 325 324 324 326 326 326 327 327 327 326 328 330 332 332 333 333 333 331 330 329 329 327 321 316 308 311 320 324 332 332 332 333 334 335 323 318 316 316 316 316 312 312 313 312 305 311 307 304 306 308 305 300 302 304 302 299 301 300 299 299 299 299 297 298 299 301 302 301 300 297 294 299 303 309 314 322 322 322 324 325 325
318 319 320 320 321 322 322 325 324 324 326 326 326 326 327 327 326 327 330 332 332 333 333 332 331 329 329 328 324 319 315 296 316 321 331 332 332 332 332 333 334 321 318 315 314 316 314 312 311 309 307 307 306 305 306 306 308 300 302 302 303 303 301 301 301 300 298 300 298 298 300 301 299 299 299 300 299 300 302 304 305 315 324 325 325 325 324 324
317 318 319 320 320 322 322 322 324 324 325 325 325 326 326 327 327 327 329 331 332 332 332 332 331 329 328 326 321 317 312 312 318 321 332 333 333 331 331 332 330 319 317 314 315 313 311 309 309 308 308 307 307 308 309 307 307 305 301 302 304 304 300 300 300 301 299 299 299 299 300 299 298 298 299 299 299 300 302 303 307 315 322 326 324 324 324 324
317 317 318 319 320 321 322 321 323 324 325 325 325 325 326 328 328 328 329 331 331 332 331 331 330 329 326 320 314 310 311 311 320 326 331 333 330 329 330 324 320 319 316 312 313 312 311 307 307 312 308 305 310 310 311 310 306 303 302 304 305 305 300 298 297 299 301 300 298 298 299 298 298 298 299 298 299 300 302 305 313 315 320 324 324 323 323 323
317 317 318 319 320 320 320 321 321 324 325 325 325 325 325 328 328 329 329 330 331 331 330 330 328 328 326 319 312 308 308 320 325 328 329 329 326 327 323 317 320 316 316 321 323 319 314 308 310 313 307 308 314 311 311 310 305 305 305 308 304 303 299 297 299 300 299 300 298 298 297 296 297 299 299 299 299 300 302 305 314 315 317 321 323 323 322 323
316 317 317 319 319 320 320 320 320 321 324 325 325 324 325 328 329 329 329 330 330 330 330 329 329 327 322 316 313 305 315 323 328 328 327 326 325 321 319 318 318 316 315 318 322 321 315 315 314 317 317 314 315 311 313 311 307 305 304 307 306 301 298 298 299 299 299 300 297 297 296 296 297 298 295 299 301 300 301 302 312 314 314 317 322 323 323 323
316 317 317 318 319 320 320 320 320 320 323 325 324 325 326 327 328 327 328 329 329 329 330 329 328 325 317 316 309 305 322 320 327 327 326 325 323 317 314 317 318 316 315 317 319 322 320 318 318 318 316 310 313 310 313 314 309 304 305 304 304 300 299 298 298 298 298 299 297 298 296 297 297 299 297 300 302 302 302 301 303 312 313 314 318 321 322 323
316 316 317 318 318 319 320 321 320 320 322 324 324 325 325 326 326 324 325 328 329 329 329 328 327 324 319 314 309 311 321 321 325 323 323 322 320 318 316 318 318 317 319 316 318 319 321 320 318 314 309 315 306 312 312 315 312 309 305 300 301 299 298 298 298 298 298 298 297 300 298 296 296 294 298 300 301 302 303 302 302 303 310 312 314 317 318 321
315 316 317 317 317 319 319 321 320 321 321 323 324 323 324 324 324 323 324 326 328 329 329 328 326 323 316 307 312 320 319 326 324 321 320 320 318 317 316 317 317 319 320 319 318 319 321 321 320 312 313 313 309 309 312 312 308 307 302 298 297 297 295 298 300 298 298 299 298 302 291 295 298 298 299 301 300 301 301 300 302 302 303 306 308 314 315 317
315 316 316 317 317 318 319 319 320 321 320 322 322 323 323 323 323 324 325 325 328 328 328 328 325 320 314 308 317 321 319 326 324 319 317 318 315 315 317 319 320 320 324 320 320 321 320 322 319 316 316 314 305 312 309 309 308 302 303 302 294 292 291 298 299 298 297 298 300 303 294 297 299 301 302 302 301 300 300 299 301 303 303 303 304 308 313 315
315 316 316 317 316 317 318 318 319 321 320 322 322 321 322 322 323 324 324 325 327 328 328 327 323 315 309 311 320 323 327 326 320 317 318 315 314 314 315 319 318 320 321 320 319 321 322 321 320 316 312 315 312 309 307 304 304 302 299 294 297 294 294 301 301 299 297 299 299 300 292 296 299 303 304 301 300 300 299 299 299 303 304 304 303 305 310 314
315 316 316 317 316 317 316 318 318 319 319 321 321 320 320 322 322 322 322 320 326 328 327 319 316 314 307 305 316 328 324 316 316 320 320 317 315 313 317 317 317 318 319 318 321 321 321 320 314 314 313 316 307 304 300 300 299 301 299 294 294 295 297 300 302 300 301 298 299 299 292 294 297 301 305 299 300 299 299 299 299 301 304 304 303 304 307 312
314 316 316 315 316 317 318 318 318 317 319 320 320 320 320 320 320 321 321 321 320 324 323 314 316 315 302 315 324 315 314 317 321 319 319 319 317 317 317 315 314 314 316 316 317 317 316 315 312 311 314 308 307 304 297 294 293 296 299 294 296 296 296 295 300 300 299 299 295 297 295 296 298 298 300 299 300 299 299 299 299 300 302 304 303 304 306 309
314 316 315 316 315 317 318 318 317 317 318 320 319 318 317 320 322 321 320 320 322 320 320 323 316 309 307 310 307 311 319 316 317 318 319 319 320 318 316 313 313 313 312 310 313 310 312 307 310 303 305 305 305 301 295 292 294 294 296 295 296 297 298 298 297 300 298 298 296 295 295 297 299 300 300 298 298 299 299 299 299 299 299 301 303 304 307 309
314 315 315 316 317 317 317 318 317 318 318 320 320 320 320 319 315 313 313 312 307 304 302 306 305 296 294 304 315 317 317 319 320 318 315 316 318 318 317 317 314 309 305 305 303 308 307 303 305 302 298 300 301 302 299 301 301 299 299 299 298 295 295 297 300 302 299 295 295 294 293 295 298 299 301 300 297 298 299 298 298 299 300 299 301 304 306 308
315 314 315 315 315 317 317 317 318 319 320 316 313 311 307 303 303 301 308 308 303 303 306 310 310 313 309 310 312 319 321 322 313 315 317 318 316 313 313 313 309 309 304 300 303 306 307 299 296 296 299 301 304 304 303 305 304 305 302 300 298 297 298 300 301 302 302 297 296 297 296 296 297 298 300 302 298 296 297 297 298 299 300 301 300 303 305 307
314 315 315 314 316 317 317 317 317 318 318 313 311 306 297 298 294 293 300 304 307 308 306 306 311 310 309 313 316 314 311 313 316 314 315 320 316 312 307 309 304 301 302 303 301 306 305 297 297 300 303 304 304 305 304 304 306 305 302 299 297 298 296 301 299 301 304 299 297 298 298 297 298 300 301 302 300 297 297 297 299 300 301 302 302 301 304 307
314 314 314 315 316 316 316 316 317 318 317 312 308 303 304 305 307 310 305 296 303 307 307 307 309 308 315 315 318 318 316 311 311 312 316 317 311 306 305 305 301 298 303 302 302 300 298 296 300 303 306 307 306 305 304 303 303 304 302 300 297 297 299 294 296 298 298 300 292 292 297 298 300 300 302 302 302 302 300 299 301 301 301 302 302 300 300 303
312 314 315 316 316 316 316 316 317 316 312 308 305 304 302 306 308 308 306 301 299 306 304 304 303 304 310 317 318 319 310 307 305 311 310 314 309 308 306 302 300 300 301 301 296 296 292 297 302 305 306 305 303 304 304 303 303 302 301 297 295 299 297 290 292 293 297 296 292 291 290 292 294 296 297 300 301 303 303 302 301 302 302 302 303 302 301 300
314 314 315 316 316 316 317 316 316 313 309 308 306 304 307 310 310 310 303 293 291 298 305 306 306 305 307 309 317 315 310 309 310 307 314 312 306 308 305 303 300 300 297 300 299 296 296 300 305 305 305 304 301 302 302 301 299 302 302 299 298 298 300 296 292 293 293 292 294 292 291 293 294 295 297 300 300 300 301 301 302 301 302 303 304 303 302 301
314 315 315 316 315 316 315 315 309 307 310 308 306 307 307 308 308 309 299 293 295 294 307 307 312 309 309 322 319 311 312 312 312 314 312 311 307 306 304 307 303 297 299 300 300 298 298 303 306 303 303 303 302 300 301 301 298 300 302 302 301 301 294 294 293 292 288 288 291 293 284 284 289 294 296 299 298 299 301 300 300 300 301 300 301 302 303 303
313 314 315 315 315 315 316 308 306 309 307 304 306 308 309 308 308 307 298 284 284 290 302 293 313 303 320 310 315 312 313 304 313 313 313 312 314 308 306 303 304 296 299 299 298 299 300 304 304 301 301 300 300 300 302 302 298 297 300 303 303 300 295 293 293 293 286 285 290 293 288 285 288 291 292 294 294 297 299 299 301 301 301 300 301 302 303 305
313 313 314 314 315 316 307 299 309 308 302 303 309 310 308 308 308 306 295 284 282 296 292 305 305 305 317 312 312 313 296 298 312 313 311 314 309 313 302 300 303 304 304 303 298 295 302 301 302 302 301 299 298 298 301 302 298 294 299 302 303 297 294 293 293 293 287 290 291 292 289 283 287 293 295 295 295 296 297 298 300 301 301 302 302 302 303 304
314 314 313 314 314 313 305 307 306 303 303 307 311 310 309 309 309 305 292 276 276 300 294 302 304 318 313 313 314 305 305 310 302 307 313 313 313 307 305 301 300 300 302 301 290 301 302 299 300 299 299 299 297 300 302 303 298 296 298 303 301 301 296 294 292 288 289 288 285 286 289 286 281 287 292 293 294 295 297 299 299 300 301 302 302 303 303 304
313 313 313 313 313 311 310 306 304 301 307 310 310 310 309 310 306 294 283 275 292 295 309 300 316 309 309 312 307 308 307 309 301 306 312 313 311 307 301 303 303 303 303 302 296 298 303 303 303 302 299 297 301 300 301 303 298 297 298 300 300 298 296 294 287 290 286 284 286 285 288 285 286 289 293 291 291 295 297 298 299 299 300 302 303 303 303 303
313 312 313 312 310 307 305 308 304 307 309 310 310 309 309 304 294 284 280 273 297 283 299 300 304 298 308 302 302 306 303 305 306 307 309 305 307 309 305 309 304 302 300 302 295 299 302 307 307 303 300 302 302 300 300 302 299 298 299 296 294 291 288 285 285 284 286 284 287 288 288 288 284 286 292 289 291 296 296 295 295 297 299 301 303 303 303 302
313 313 313 311 302 303 305 300 305 309 309 309 309 308 304 297 286 280 275 283 294 289 301 300 296 309 301 299 296 303 303 303 303 304 300 305 301 302 304 300 299 300 297 294 293 296 297 302 302 302 306 303 304 299 299 299 298 298 290 290 292 288 287 285 285 284 283 284 283 288 288 289 284 282 290 295 295 294 297 296 296 297 298 299 301 302 303 301
312 313 312 306 305 306 301 299 307 310 310 309 306 301 296 281 285 279 277 298 284 288 290 292 300 302 300 302 300 300 298 300 303 301 298 299 297 298 298 294 297 289 289 291 290 293 294 298 299 300 302 303 300 297 294 296 296 295 292 293 289 281 283 282 285 282 282 282 283 284 287 284 287 288 289 294 295 297 295 297 298 298 298 297 298 300 301 299
311 310 309 306 306 302 303 307 309 309 309 308 302 298 287 280 274 283 285 286 282 293 289 296 297 300 301 299 297 300 302 295 302 300 301 300 298 298 301 300 301 297 287 293 291 290 291 295 297 297 298 303 302 295 289 290 293 293 293 290 287 279 277 279 278 279 278 281 282 283 286 285 287 289 296 297 300 299 296 296 297 297 295 295 297 297 298 297
309 308 303 305 305 305 306 307 307 308 306 305 298 290 285 279 278 290 284 285 286 293 295 292 295 298 301 295 297 300 295 300 300 298 300 297 297 294 297 299 301 298 297 294 289 289 285 286 292 295 293 300 302 300 297 294 293 294 294 295 289 286 278 277 277 278 277 277 280 282 284 280 284 285 291 300 301 298 297 295 294 293 293 295 294 295 295 295
309 307 306 305 305 305 306 307 306 308 305 300 291 285 278 278 286 283 284 285 288 292 291 295 293 294 296 298 300 301 300 293 300 298 297 296 293 295 295 296 300 301 298 291 290 291 289 289 294 299 296 301 300 300 297 295 292 291 293 295 289 289 283 278 276 279 275 275 276 278 283 282 288 290 293 292 292 293 293 296 294 296 294 295 295 295 296 296
306 303 305 302 302 302 306 307 306 305 301 294 286 281 280 283 280 286 286 291 291 287 289 293 291 286 293 294 299 297 302 296 298 298 296 297 297 295 299 299 298 300 296 292 293 288 291 287 293 297 296 300 300 298 298 300 288 291 294 290 294 293 287 278 279 281 277 275 277 277 281 284 287 293 296 297 294 295 291 291 293 295 294 292 295 295 295 296
301 303 299 301 302 303 305 306 304 302 299 290 284 280 284 282 287 290 294 290 290 292 291 285 284 285 287 289 293 296 296 299 297 296 291 298 294 297 298 299 302 300 301 298 292 295 289 287 290 294 290 296 298 301 298 301 296 292 288 293 294 293 290 286 280 275 275 273 276 280 282 281 283 283 289 294 294 295 292 292 292 292 291 293 295 294 296 296
300 300 300 299 302 304 305 304 302 298 293 287 282 286 284 284 289 290 294 294 293 293 289 287 286 287 286 286 289 295 296 293 293 296 291 296 291 302 298 298 301 301 301 301 295 292 294 283 285 290 294 294 297 299 295 297 296 296 293 297 293 285 286 284 280 276 272 272 271 276 280 280 284 286 287 290 292 294 294 292 290 291 292 293 294 294 294 294
300 298 292 300 303 304 302 302 299 295 288 283 282 284 285 285 289 287 290 292 296 293 288 288 285 285 286 285 289 296 296 290 295 293 291 294 291 299 298 300 298 301 302 300 296 292 296 285 285 288 292 293 296 296 288 293 293 293 296 294 294 288 287 284 285 276 280 273 274 272 277 279 286 287 288 291 292 294 295 293 291 293 294 295 296 295 294 295
296 292 290 302 303 304 302 301 294 291 285 281 283 283 288 284 285 289 290 292 292 291 288 287 286 285 285 285 289 289 295 295 295 293 294 295 294 302 299 303 298 299 301 301 296 298 290 290 283 287 291 293 289 292 291 293 289 289 291 290 291 288 287 287 287 281 279 273 272 272 275 280 282 289 292 296 294 294 296 296 295 293 294 295 295 295 294 295
296 292 290 301 302 302 300 296 289 285 283 287 288 284 284 283 285 287 290 293 294 296 292 288 287 285 285 286 286 289 292 294 295 293 294 294 295 290 301 301 301 298 301 298 295 296 287 288 285 286 287 289 292 297 296 296 295 293 293 290 292 289 285 284 281 285 278 279 275 274 279 279 283 290 296 296 297 296 295 296 295 292 293 294 294 293 294 294
292 285 288 302 302 300 294 286 285 289 286 283 281 286 284 291 285 286 287 291 293 291 294 291 289 287 285 285 286 286 286 292 295 294 295 293 297 297 300 304 302 302 299 294 294 298 292 287 287 285 287 290 293 292 291 296 297 294 294 290 294 292 288 284 281 282 283 284 277 274 275 279 288 289 291 295 293 293 294 293 294 293 292 292 293 293 294 296
290 287 298 302 303 298 291 285 287 286 284 288 292 289 290 287 286 287 286 289 288 291 290 288 287 286 287 286 285 286 286 286 293 293 295 296 297 300 302 303 303 302 301 297 299 294 293 286 285 284 286 289 290 291 291 291 295 292 292 290 292 290 291 290 287 281 284 282 282 280 278 281 287 289 289 290 289 291 291 292 294 292 291 292 294 295 296 295
290 289 291 300 302 298 288 280 280 283 285 287 287 287 290 288 286 284 285 286 286 286 287 289 291 292 286 288 287 285 286 285 292 295 293 297 296 302 303 303 303 299 299 297 295 297 291 287 288 282 282 284 284 288 288 289 291 292 291 292 294 295 293 288 285 281 281 283 283 283 279 285 288 285 286 286 288 291 292 291 291 293 291 293 294 295 295 294
290 292 293 294 297 294 284 287 284 283 284 284 285 283 284 285 288 288 288 285 289 287 288 285 290 291 287 289 285 286 286 286 286 293 291 296 296 302 302 303 303 300 302 302 299 301 292 289 288 282 277 276 276 278 281 284 288 292 293 293 293 293 292 289 287 283 283 279 283 282 284 289 289 288 290 289 287 291 290 290 291 292 292 293 291 292 293 293
284 279 287 289 292 290 287 288 287 286 284 284 282 284 286 283 287 288 289 286 289 289 289 291 290 292 288 288 285 284 285 285 286 286 287 289 293 297 302 303 302 301 301 299 299 299 287 291 290 289 286 284 286 288 292 293 290 287 289 292 291 293 294 292 289 287 284 282 281 285 288 288 286 290 287 288 288 288 290 289 291 291 292 291 290 292 293 294
288 283 283 280 287 286 282 285 285 286 283 287 280 285 282 284 285 286 291 284 288 286 287 286 286 286 285 287 285 284 285 285 285 286 286 287 290 293 303 302 302 302 299 297 300 295 287 288 290 290 290 291 292 290 293 293 290 290 290 290 292 291 291 290 288 287 291 285 281 284 287 286 289 289 286 288 289 288 289 289 289 289 291 293 293 291 293 292
279 284 288 289 282 279 280 279 285 286 288 287 284 287 284 284 284 282 287 289 289 290 285 287 286 288 288 286 287 283 284 285 285 285 287 287 288 292 297 301 300 300 299 298 300 297 291 288 291 291 290 291 291 292 294 293 293 292 291 291 290 291 290 288 289 292 291 286 285 290 291 288 290 291 292 291 290 292 292 293 291 290 290 290 291 292 293 294
286 285 286 288 280 283 284 285 287 287 286 285 284 285 284 283 282 286 284 285 286 286 288 283 285 286 286 288 287 284 286 284 283 285 285 285 286 289 292 295 300 301 300 298 298 294 294 290 291 292 289 289 290 291 293 292 292 292 291 292 292 291 291 291 292 293 292 290 292 293 292 291 294 294 294 294 291 291 291 289 289 289 291 292 291 291 292 293
283 283 280 284 283 283 284 284 285 285 283 286 279 282 284 284 283 285 287 286 283 285 290 286 286 287 286 287 286 285 286 288 288 284 286 286 286 284 290 291 288 295 299 296 296 293 295 289 293 290 288 287 289 290 291 292 291 289 291 292 292 292 292 292 292 293 293 292 293 292 291 291 296 297 295 294 294 290 291 289 292 292 291 291 292 292 292 292
288 289 287 283 280 281 283 283 282 282 281 281 279 282 285 285 284 286 286 290 287 285 286 285 288 287 288 287 287 286 288 288 287 287 289 288 284 286 285 286 289 290 294 293 294 291 294 289 291 289 286 285 288 288 289 290 290 289 288 290 291 290 288 290 290 293 291 289 291 291 289 290 295 293 292 292 293 293 293 292 292 292 292 292 292 293 293 292
289 290 289 285 278 284 281 281 281 281 276 280 282 282 283 284 287 287 284 289 291 291 290 289 289 288 287 287 286 287 291 290 289 290 289 288 288 286 288 287 287 288 289 293 293 292 293 290 288 288 286 286 288 288 287 287 287 285 286 290 291 292 293 294 294 294 293 294 290 288 289 296 292 295 295 289 292 292 293 293 292 293 292 292 293 294 293 292
Wind_Speed
23 23 24 24 24 23 23 24 21 21 23 22 22 21 19 18 19 18 20 19 19 16 15 17 16 16 15 15 14 12 12 8 7 8 8 12 11 6 10 8 6 10 5 1 4 4 2 1 3 3 1 0 2 1 1 1 1 2 2 4 4 4 2 2 2 2 3 5 4 2 3 5 3 0 0 2 4 4 4 7 2 7 5 3 6 13 15 14
23 23 24 25 25 24 24 24 22 21 23 23 21 21 22 19 19 20 19 20 20 19 17 16 17 17 16 16 15 13 11 6 10 9 17 6 11 7 12 12 8 9 7 3 8 6 6 4 4 2 3 2 0 1 0 1 1 3 2 3 7 3 4 1 0 2 3 2 5 4 3 4 4 6 1 3 1 4 4 2 3 6 4 6 10 13 14 14
23 23 24 25 26 25 26 25 23 21 22 22 21 20 22 21 20 19 19 20 20 20 18 18 17 17 17 17 16 15 9 4 5 14 17 9 14 11 8 12 9 10 6 4 6 6 7 7 4 3 2 2 1 3 0 1 1 3 3 4 5 3 2 5 1 4 1 7 4 4 1 4 3 3 1 2 5 4 7 6 1 6 7 8 9 11 13 12
23 23 23 24 25 25 26 24 22 22 23 21 20 20 20 21 20 20 20 20 21 22 20 20 19 18 18 18 18 10 4 1 12 9 12 13 18 14 10 11 11 10 5 1 0 2 4 5 4 6 2 3 2 2 3 3 2 2 2 4 4 1 2 3 4 2 4 5 5 4 1 3 1 3 3 4 3 3 4 9 12 11 13 12 11 12 11 12
23 23 24 23 25 26 26 25 25 24 23 22 20 21 20 20 21 21 20 21 22 23 22 20 20 19 19 19 19 10 8 4 7 14 13 18 16 17 12 9 11 7 8 2 2 1 2 5 4 5 3 3 1 2 4 4 3 2 6 5 4 1 3 2 2 5 2 2 6 4 4 3 0 2 1 5 3 4 7 7 8 15 15 15 14 13 11 12
23 23 23 24 24 24 26 26 25 26 24 23 22 21 20 20 21 22 21 22 23 23 23 23 22 21 20 20 15 11 12 12 4 12 19 22 19 18 15 11 9 6 5 2 2 1 3 4 5 5 4 3 5 6 2 6 3 4 3 4 5 2 2 1 0 2 2 1 4 3 1 1 2 0 2 3 5 2 3 3 8 12 17 18 15 14 12 12
22 23 23 22 24 23 23 25 23 26 24 24 23 22 21 20 21 22 23 22 23 24 24 24 24 22 21 19 12 16 17 7 2 4 27 25 23 21 17 11 9 6 7 4 3 3 4 5 5 5 4 4 4 5 4 5 4 4 6 3 6 3 5 4 2 1 1 6 2 2 1 2 1 1 0 3 4 6 3 3 7 15 13 12 13 15 17 17
23 23 23 22 23 24 22 23 26 26 25 25 23 23 23 21 21 23 23 22 22 24 25 22 23 24 20 13 12 10 13 14 4 3 23 25 23 20 16 9 9 5 8 9 6 5 5 7 9 5 6 8 2 7 4 6 7 7 5 4 3 3 4 4 4 2 1 2 1 4 2 2 4 2 0 4 6 4 5 4 6 11 12 12 14 15 14 14
22 22 23 23 22 22 20 23 26 25 25 25 24 24 24 22 22 22 23 22 22 21 22 25 25 24 23 12 13 12 19 8 4 7 16 15 15 15 16 9 9 10 6 3 1 3 4 6 6 6 6 7 3 4 5 8 6 7 7 4 1 2 5 4 3 3 3 1 2 1 2 4 4 2 3 6 6 6 4 7 9 11 12 13 13 15 14 13
23 22 23 24 24 22 20 21 25 27 25 24 24 24 23 21 20 20 21 21 21 20 21 24 26 26 20 13 11 16 12 9 4 12 17 17 15 16 15 13 14 12 10 8 3 3 4 1 3 1 7 2 1 5 2 9 5 5 4 4 5 3 6 4 6 4 3 2 3 3 2 3 3 5 7 4 8 3 5 6 9 13 14 13 12 12 12 13
23 23 23 24 25 23 22 24 27 30 23 21 22 21 22 20 19 17 17 20 20 19 23 27 25 23 16 13 15 18 7 11 6 11 18 19 18 15 15 14 15 14 14 9 5 3 6 7 1 2 3 3 2 3 3 4 2 5 6 4 5 4 4 5 4 5 2 2 4 4 4 2 2 1 9 3 3 8 8 6 8 10 11 11 12 12 11 11
23 24 23 25 26 26 26 24 24 26 24 20 19 17 18 19 18 17 16 17 20 20 19 17 33 18 13 14 14 10 8 7 10 11 15 20 16 16 13 15 15 15 18 14 7 3 6 5 4 2 4 1 2 2 2 3 3 2 6 4 6 4 3 4 5 4 5 3 4 2 2 4 3 7 5 7 2 6 8 8 7 8 10 9 10 10 9 12
23 23 23 24 27 25 28 27 26 24 23 21 20 20 19 18 17 16 15 14 18 21 22 24 17 10 13 11 14 2 5 9 13 15 14 14 12 8 6 5 5 6 9 13 7 3 6 7 7 10 2 1 2 4 3 1 3 3 2 4 3 3 4 6 3 4 7 3 7 4 4 9 10 10 7 9 6 5 7 7 7 7 8 8 8 9 10 8
22 22 24 25 25 26 28 28 29 25 26 22 21 19 18 17 18 15 14 14 16 18 24 28 17 13 11 7 6 5 4 9 15 15 16 13 18 7 10 5 7 7 9 13 8 6 9 8 11 6 1 4 1 4 1 1 1 7 2 2 3 3 6 4 6 5 8 3 9 5 6 10 4 8 13 11 7 9 9 8 8 8 7 7 8 8 10 11
23 22 24 25 27 24 26 26 24 26 24 23 20 18 16 15 15 11 11 12 17 16 19 22 15 14 11 5 4 6 10 9 16 17 15 19 16 11 11 9 9 9 9 11 6 5 7 10 6 3 1 1 2 2 2 3 0 2 5 5 2 7 4 5 9 11 11 1 5 7 6 12 7 8 9 6 8 9 9 7 7 7 8 9 8 8 9 11
23 23 26 27 29 24 23 23 27 24 25 21 21 18 16 14 15 12 10 7 14 21 14 13 11 10 10 9 4 8 2 18 18 18 13 19 17 16 13 11 10 11 11 4 7 6 7 9 6 1 2 2 6 2 1 4 2 3 6 2 6 2 5 3 5 10 12 5 2 11 7 2 6 9 11 3 11 10 10 9 8 8 9 9 8 8 8 8
23 24 26 27 29 28 27 27 25 26 24 21 20 18 15 14 13 11 10 10 7 3 12 7 12 11 9 2 3 17 11 13 14 12 13 12 17 17 17 14 8 10 10 7 7 9 2 6 1 1 2 3 4 4 2 6 4 6 3 3 4 9 3 5 3 5 6 10 6 7 8 10 3 4 3 4 7 9 9 10 10 9 8 9 8 8 8 9
23 26 28 27 31 29 29 28 28 26 23 21 18 16 14 16 16 14 7 5 5 2 5 3 12 8 2 1 14 13 9 8 16 15 16 12 16 18 17 10 7 13 12 8 3 6 2 4 1 4 1 3 5 5 11 13 10 8 7 4 6 3 7 7 5 4 8 8 11 9 11 14 9 6 5 4 5 9 11 10 9 9 7 8 8 9 9 10
23 28 30 30 25 28 29 28 28 26 23 21 19 19 18 15 6 3 6 8 9 6 9 10 11 13 7 17 13 14 13 12 11 19 12 17 12 13 9 9 16 18 9 9 3 10 2 5 2 3 11 10 12 11 10 1 8 10 10 12 7 7 6 8 6 4 15 8 9 10 12 13 13 9 7 5 5 8 10 7 7 7 7 7 8 9 9 9
23 26 29 34 31 29 29 27 24 23 23 19 15 13 7 8 8 8 7 8 13 14 4 3 14 3 13 17 18 10 10 15 14 13 19 13 19 16 12 14 8 7 14 12 10 9 7 11 11 16 15 12 11 13 14 7 7 6 8 6 7 6 3 3 6 5 12 7 13 13 11 9 12 10 10 9 7 7 7 8 9 8 9 9 8 10 11 12
23 23 25 27 27 27 29 27 25 22 25 15 15 14 12 14 15 14 13 6 4 10 18 4 10 9 1 13 18 23 19 13 16 16 20 15 18 23 12 13 13 11 11 11 13 7 9 11 16 16 15 16 16 12 7 10 3 9 8 5 6 6 7 3 6 6 10 10 8 8 7 11 12 9 9 8 8 12 11 11 11 11 11 11 11 11 11 13
26 26 25 25 22 23 24 24 24 22 27 15 15 12 5 17 6 6 12 11 15 14 9 9 3 13 6 16 19 23 20 17 18 19 11 20 16 19 14 16 18 16 12 11 10 10 11 18 17 13 11 11 11 11 13 13 10 5 7 6 4 6 3 3 1 1 3 5 7 2 10 12 10 10 9 9 10 10 12 13 15 14 14 12 11 10 10 7
28 27 26 24 24 26 26 25 23 29 15 15 15 13 8 3 2 4 4 2 10 8 11 8 9 10 6 7 11 19 20 17 18 17 18 16 21 18 21 15 15 12 14 15 15 13 13 12 9 13 11 13 11 13 14 12 8 6 5 5 7 4 6 4 3 1 1 4 1 0 4 7 5 8 11 10 9 8 10 15 15 14 15 14 14 13 11 10
24 26 26 25 24 26 27 26 27 24 14 17 17 17 4 8 8 14 10 6 4 4 7 11 10 9 11 14 8 21 25 17 22 23 19 18 22 12 16 18 18 15 16 20 19 16 10 5 11 12 12 15 15 14 14 11 10 7 5 3 4 4 7 7 5 0 1 3 2 2 6 10 6 10 10 9 10 10 10 8 12 12 11 12 10 8 9 12
25 23 26 23 25 25 27 30 21 13 13 12 10 2 6 4 2 13 7 2 1 4 3 2 6 7 12 5 12 18 17 11 19 20 16 21 18 16 12 9 11 13 16 18 12 9 7 11 13 16 14 12 13 14 16 12 11 7 8 10 6 2 4 3 6 5 2 3 3 3 3 7 4 10 14 8 4 10 8 10 13 11 9 7 9 10 8 8
22 20 20 24 24 28 32 18 12 13 14 12 6 8 8 4 4 9 7 2 8 3 7 12 8 12 7 15 10 9 16 13 13 15 16 16 14 17 10 12 9 17 18 17 13 4 6 12 14 16 14 13 13 12 14 12 10 10 8 10 8 2 5 7 6 4 1 5 3 3 8 9 4 4 4 5 3 8 6 9 14 12 10 9 11 11 12 13
22 20 22 31 30 29 20 3 9 13 13 6 7 8 6 6 4 7 8 3 8 8 8 5 13 3 10 10 15 17 21 12 2 10 16 17 18 7 19 9 7 5 11 7 4 8 9 15 16 15 16 14 11 12 10 14 8 7 2 11 7 6 8 6 6 6 2 1 2 1 2 4 11 9 5 7 8 10 10 12 11 12 12 13 13 13 13 15
21 22 21 29 31 28 3 7 16 16 8 8 12 8 9 9 9 4 4 5 9 12 9 9 6 4 8 13 18 20 7 28 13 12 11 13 13 9 12 21 16 18 15 13 16 8 19 15 17 16 14 12 13 8 7 11 7 3 3 8 9 8 6 6 6 3 0 1 7 4 0 2 7 7 2 2 7 10 15 14 11 12 13 14 15 16 16 16
24 22 24 26 24 13 9 5 9 8 4 12 9 7 8 13 11 8 4 5 1 4 3 10 3 5 6 14 18 11 19 21 15 17 13 14 2 8 11 19 15 17 17 19 13 6 8 16 17 18 14 12 8 5 7 12 9 2 4 4 4 6 5 5 4 4 1 1 11 6 4 6 9 8 7 2 5 15 17 11 12 10 12 14 15 16 16 13
27 26 26 27 13 7 4 3 2 7 13 11 12 6 4 14 7 11 11 9 3 3 2 3 12 12 16 15 15 12 21 11 6 14 11 9 4 7 2 11 13 17 13 8 3 8 7 10 10 9 12 10 8 5 7 9 4 4 9 8 7 7 4 3 5 4 3 8 10 8 7 5 10 6 11 6 10 11 8 6 4 6 10 12 14 15 14 12
28 25 24 23 9 7 9 6 6 10 13 14 11 8 6 8 8 13 17 3 5 2 4 9 10 18 23 22 13 14 18 12 16 22 9 5 5 4 10 6 3 11 8 6 4 5 4 9 9 4 11 5 10 6 1 5 9 10 3 6 8 4 6 5 2 3 3 10 3 11 8 8 11 4 9 10 7 7 9 8 7 9 10 11 10 11 12 10
25 26 28 15 7 8 12 10 11 10 12 15 16 9 10 10 1 13 7 3 6 3 5 4 9 18 28 23 13 19 17 12 19 21 19 16 14 15 17 16 11 13 14 15 9 3 7 13 5 6 5 16 12 9 1 5 7 9 9 9 11 3 3 3 2 5 11 8 0 1 6 1 20 5 6 9 11 13 6 8 10 10 9 8 9 11 10 8
25 21 20 7 10 4 3 10 11 11 11 12 13 8 6 6 12 6 4 5 2 4 8 0 9 18 28 26 18 19 18 20 22 19 21 18 20 17 21 20 22 16 17 16 14 12 6 3 10 8 6 10 14 14 6 7 9 13 15 12 11 6 4 8 3 2 5 5 3 4 3 8 3 5 12 23 22 13 10 10 9 8 7 6 7 7 6 6
25 17 10 6 5 4 9 11 9 12 16 9 12 9 4 6 5 7 4 1 4 1 3 5 4 2 28 22 18 19 13 10 28 20 24 18 17 16 14 9 20 12 10 18 14 13 10 9 12 15 10 10 18 16 15 9 13 10 4 12 9 7 6 8 6 10 9 6 1 2 6 8 8 6 8 22 20 5 6 7 6 6 4 5 3 2 4 6
20 13 10 7 7 8 11 10 10 12 10 12 10 10 11 7 3 12 5 5 2 3 2 4 8 4 20 18 15 19 14 12 23 20 18 21 20 17 20 17 20 12 8 15 6 7 18 4 4 12 1 13 16 6 8 11 5 1 4 6 6 12 5 4 3 3 2 1 0 2 8 5 7 3 7 8 9 9 6 8 6 7 4 1 4 4 5 5
15 4 7 5 7 5 9 8 8 8 8 10 7 6 10 3 4 4 6 5 4 6 6 5 4 1 12 14 14 22 10 13 24 24 15 18 17 20 20 17 23 25 19 17 12 11 9 12 8 6 5 19 14 10 6 15 12 8 9 12 9 4 4 2 2 0 3 2 9 3 7 7 7 11 13 13 10 12 5 5 7 9 7 5 6 6 6 7
9 7 5 4 6 5 8 8 8 8 8 6 4 6 1 1 3 1 4 9 5 12 8 12 7 6 8 13 13 24 12 8 22 16 15 19 15 17 19 14 18 21 22 17 12 4 17 7 3 11 3 2 3 16 9 11 6 6 8 10 4 3 4 5 5 1 1 5 6 5 12 4 1 10 2 12 11 14 6 7 6 6 4 6 8 7 8 8
10 5 6 5 4 6 7 7 10 7 6 4 6 2 2 2 2 5 4 3 4 3 7 7 2 2 3 5 9 20 16 15 18 17 14 20 5 18 18 14 18 17 17 12 14 7 10 6 3 3 8 4 4 10 5 2 1 13 10 5 12 6 9 3 2 6 4 5 5 4 5 5 11 10 1 4 11 12 9 6 4 5 6 8 8 9 7 5
9 9 7 4 2 7 6 9 8 8 5 4 4 4 0 1 1 3 4 5 2 4 7 4 3 2 2 1 3 12 15 17 20 16 15 13 11 22 22 14 17 17 19 15 12 7 9 8 2 3 5 5 7 11 13 11 2 2 7 9 6 3 4 7 9 2 4 5 1 7 2 9 10 7 8 8 9 12 11 8 7 9 9 10 10 8 8 7
11 6 4 2 2 6 7 9 7 6 3 6 3 1 1 1 2 5 5 2 2 3 2 5 1 3 1 1 2 5 9 14 23 14 15 12 12 20 22 17 15 18 15 15 6 13 9 4 9 3 1 8 9 8 15 17 15 9 10 10 7 2 1 4 1 5 6 4 5 3 6 9 7 8 12 15 10 12 14 13 11 9 10 11 10 8 7 6
3 6 5 2 4 6 9 8 6 7 5 1 3 2 1 1 1 4 6 6 2 3 2 5 5 4 3 3 1 3 5 10 14 15 13 15 18 14 18 20 18 22 14 10 8 10 4 8 13 9 7 11 11 9 11 18 15 15 16 15 15 13 7 11 9 1 3 3 6 6 13 5 4 3 12 14 14 11 10 10 10 8 9 10 8 6 7 6
10 8 7 8 4 8 10 8 2 1 2 3 3 4 2 2 2 3 4 5 4 2 3 4 3 4 1 3 2 4 4 5 13 12 10 17 18 12 20 27 22 23 20 17 15 12 7 4 11 14 11 13 8 1 2 7 12 5 8 6 9 6 4 6 9 9 5 7 3 3 3 10 8 2 6 9 6 6 7 7 8 7 8 8 8 7 7 8
7 8 7 11 3 7 7 4 4 4 3 1 6 7 2 3 2 2 2 5 3 3 2 3 4 4 1 2 2 3 2 1 9 13 9 14 20 17 16 29 23 23 18 11 12 4 12 6 11 6 6 4 3 2 3 2 7 3 4 3 8 12 14 14 8 3 8 3 8 4 6 7 2 1 2 2 5 6 5 8 10 5 4 5 6 6 7 5
7 8 7 2 4 3 4 5 7 7 3 3 4 5 3 3 2 1 2 2 2 2 3 3 2 3 5 2 4 4 0 0 3 10 9 11 11 10 16 24 26 17 21 15 16 13 10 6 15 10 6 3 5 2 2 3 2 7 9 12 15 15 15 4 3 1 5 11 8 9 13 11 5 2 2 3 2 5 6 5 5 6 4 6 7 6 5 6
9 4 5 4 3 2 5 0 7 5 4 7 5 7 4 4 1 2 2 1 2 2 1 2 2 5 5 3 3 3 3 1 1 3 7 7 4 7 13 25 27 18 17 12 12 12 4 10 18 19 20 18 16 15 17 13 18 14 16 20 17 19 20 12 15 6 12 4 10 8 13 7 2 2 1 2 2 0 0 0 1 2 6 8 5 4 5 5
3 8 4 4 1 0 3 1 0 5 7 5 4 4 3 4 3 2 2 3 2 2 4 2 5 4 5 6 3 2 3 1 2 1 5 1 1 3 12 22 24 15 18 13 16 11 4 8 10 13 19 22 22 16 5 9 8 11 9 16 19 18 18 13 5 8 15 4 9 11 14 9 3 7 4 4 3 5 4 2 4 5 3 4 4 5 6 6
2 5 6 6 4 2 0 1 2 4 5 4 4 3 4 3 5 3 3 2 1 1 2 3 1 3 2 4 4 3 1 4 2 2 1 5 4 2 17 22 21 21 22 12 19 8 4 10 17 14 17 12 6 6 13 14 17 18 19 19 14 11 10 15 16 19 11 6 10 6 12 15 20 9 4 8 6 5 4 3 4 4 5 6 5 4 5 5
5 2 4 3 3 7 4 1 0 7 3 3 3 3 7 6 3 4 1 0 3 2 2 2 5 5 6 2 3 5 5 3 2 3 1 2 5 2 10 17 17 18 18 6 14 12 10 12 16 15 16 10 11 13 15 14 14 15 18 18 22 19 15 17 19 18 10 11 18 22 21 19 21 10 12 11 7 7 9 11 8 5 2 3 3 5 6 7
4 4 3 2 4 5 3 4 2 5 9 4 2 3 6 6 6 1 3 4 2 0 2 3 2 4 4 6 3 4 6 7 2 1 2 0 3 3 7 7 14 19 17 11 11 1 8 11 10 13 12 9 11 14 16 17 13 15 17 18 19 22 22 23 23 23 21 16 20 24 20 23 24 15 14 10 5 7 6 2 2 4 7 7 6 6 8 8
3 6 2 2 4 6 5 6 5 7 5 3 2 2 5 5 6 3 2 2 2 2 1 4 6 4 4 3 3 4 3 4 3 6 4 5 1 7 1 5 3 4 10 11 10 4 10 10 16 12 12 9 10 11 13 17 18 18 18 19 19 18 19 22 20 20 18 19 21 25 23 21 19 9 7 5 6 5 1 4 7 9 8 7 8 9 10 10
2 2 4 9 7 2 5 3 3 7 6 3 3 2 4 4 5 4 3 1 2 5 4 4 5 4 3 3 4 3 3 4 7 7 4 4 6 1 2 2 9 5 8 8 6 1 7 4 8 8 11 8 8 14 14 16 18 18 17 19 18 19 20 20 21 23 21 22 23 21 18 18 22 6 5 6 8 10 11 10 9 8 8 9 10 12 11 10
3 2 6 6 6 4 6 2 3 4 3 1 3 2 2 5 5 4 4 3 3 5 4 5 5 3 2 3 1 2 4 5 3 5 6 5 6 4 4 1 4 5 2 10 4 9 11 8 12 12 13 13 14 15 13 10 8 11 18 21 25 26 26 25 25 22 17 15 18 19 24 25 2 11 11 6 10 13 14 11 10 11 11 12 14 14 11 9
Wind_Direction
248 244 242 240 237 228 228 227 221 218 226 223 222 222 206 191 203 205 213 206 199 201 190 187 181 176 172 166 161 167 148 165 175 182 192 218 192 174 164 202 160 148 124 144 142 145 208 245 264 280 102 32 268 108 243 50 144 65 144 144 246 213 262 243 275 222 178 128 190 191 185 116 117 60 268 84 41 94 74 90 31 40 41 65 109 126 136 140
248 245 243 240 237 229 226 228 223 217 221 225 220 224 219 192 198 202 207 209 203 199 193 182 180 172 164 158 154 159 154 162 193 199 209 180 167 144 176 183 169 143 114 150 166 177 163 214 233 171 129 185 307 166 23 259 79 127 164 132 218 206 237 256 186 79 116 182 171 178 123 144 196 138 225 116 190 132 93 50 78 75 48 75 104 127 136 144
246 245 243 241 237 231 223 221 220 216 220 223 220 223 223 205 200 201 200 204 202 197 191 185 177 169 162 155 158 157 148 182 217 221 224 166 174 178 160 164 175 153 158 165 186 160 171 190 198 151 174 154 214 190 99 250 104 235 118 202 233 205 292 359 328 119 111 147 132 105 104 96 188 110 149 162 181 150 154 134 49 123 143 141 134 141 147 150
245 244 242 240 237 229 224 219 219 213 217 217 218 224 222 210 199 202 203 201 200 195 185 181 173 167 163 160 155 143 140 134 234 214 222 173 181 183 175 166 167 171 155 278 132 181 177 177 183 174 167 188 243 110 152 243 118 262 108 191 220 227 27 330 336 344 123 132 140 129 87 79 130 154 135 173 97 233 228 185 164 178 166 163 156 155 156 158
244 242 240 239 238 231 221 218 215 214 212 213 217 221 222 213 201 200 204 202 199 198 183 176 169 167 162 161 149 141 123 233 234 205 197 178 182 188 178 174 163 163 169 99 27 332 238 192 176 183 157 203 187 117 223 203 181 132 208 200 206 86 93 253 315 337 41 90 116 111 96 168 223 78 140 126 157 221 209 221 198 166 164 159 163 167 162 167
241 240 239 237 236 233 229 216 215 210 207 211 214 220 220 213 203 200 202 198 201 197 184 175 168 167 162 157 149 158 157 205 167 192 164 182 180 186 185 175 149 142 136 104 125 261 179 232 165 178 191 161 200 181 240 173 171 213 285 227 234 182 152 215 298 297 347 87 111 103 182 104 104 194 241 159 179 230 207 183 179 165 169 172 160 157 168 172
240 238 236 235 233 229 225 224 209 210 204 208 213 218 220 212 205 200 199 197 196 194 184 176 167 163 161 149 159 168 196 231 159 252 161 173 177 180 185 163 129 134 131 137 194 186 181 206 182 190 167 200 255 200 211 170 182 179 221 223 242 164 160 179 179 240 2 91 112 185 78 120 138 186 252 191 237 209 211 206 157 170 162 147 155 174 174 179
239 237 233 231 229 226 218 227 217 204 204 209 211 217 220 214 206 203 198 195 194 197 189 175 164 159 148 149 137 209 214 223 257 194 168 165 169 174 165 149 139 121 146 177 178 206 181 205 198 158 187 183 191 197 191 181 176 192 226 209 263 220 177 163 163 156 117 106 125 69 105 236 163 186 102 236 239 238 210 120 116 133 147 165 168 178 182 184
238 236 233 228 224 221 213 214 225 212 204 207 209 214 216 212 207 204 197 192 194 195 183 172 171 160 156 154 180 181 222 207 208 166 149 158 157 147 142 149 150 148 150 116 314 205 174 216 203 176 198 193 253 231 194 179 228 200 201 185 226 154 153 151 138 164 157 148 106 79 250 274 250 161 242 229 242 215 162 107 131 140 152 171 181 183 183 187
237 235 231 226 223 215 206 210 216 218 201 200 204 210 213 206 201 198 194 189 191 192 186 178 166 161 156 166 175 206 200 190 146 154 151 148 148 145 157 151 157 154 147 167 109 158 161 208 165 295 95 318 177 230 196 202 231 172 178 202 209 189 148 191 150 196 194 172 162 175 236 256 274 156 265 256 226 163 152 148 149 150 169 180 181 188 190 187
236 234 230 225 221 209 205 206 210 214 194 185 195 200 201 197 190 184 183 185 186 188 190 175 163 153 167 177 179 210 120 173 169 159 151 144 148 157 160 158 160 158 157 161 132 139 136 114 164 98 61 215 63 276 169 227 150 157 199 205 221 210 161 178 155 185 153 272 180 166 236 268 282 247 227 229 257 172 170 176 165 165 174 184 187 187 192 194
235 233 229 223 219 215 205 202 205 207 193 179 177 176 186 189 180 175 171 173 179 175 171 184 161 160 161 181 207 193 175 145 160 159 148 146 156 172 163 163 166 162 156 151 140 139 117 107 107 122 172 49 204 60 269 284 239 197 148 198 233 214 196 200 170 194 160 239 164 139 353 284 208 224 224 226 191 169 170 176 184 179 183 188 191 190 190 198
233 232 228 220 217 209 208 195 197 200 196 179 178 179 178 181 179 174 167 158 174 179 172 164 164 160 143 186 209 194 193 143 159 154 151 151 141 142 142 134 121 133 142 125 122 116 85 80 78 85 342 145 158 141 268 294 210 82 80 141 142 174 250 227 194 150 163 222 149 118 277 241 230 230 236 227 194 168 166 184 195 196 189 195 189 194 199 197
232 228 225 218 209 202 203 200 194 192 194 188 183 182 179 180 179 176 169 157 159 184 183 171 162 161 169 212 151 228 224 170 156 153 157 144 136 135 120 99 109 105 101 101 104 93 77 69 73 104 94 52 59 320 322 258 61 165 199 78 153 168 245 227 180 165 171 179 155 132 228 259 246 239 228 228 178 172 192 197 201 200 200 201 202 195 199 200
232 225 221 210 208 196 195 197 196 192 185 185 186 185 180 177 172 144 137 142 163 161 175 171 165 146 188 216 17 221 248 144 167 166 157 149 137 125 132 115 110 109 113 110 108 96 97 68 56 49 9 306 260 38 29 308 146 161 110 228 274 175 282 235 198 165 183 217 179 123 242 258 248 253 259 217 183 180 200 207 209 209 205 205 205 205 201 202
231 223 215 204 198 188 190 197 195 198 190 181 182 180 176 166 163 150 146 125 150 165 159 175 178 158 141 184 205 89 184 173 179 162 168 148 149 143 134 119 110 108 105 80 101 90 70 78 70 42 53 32 54 53 181 154 235 211 159 179 213 187 232 335 237 192 187 128 229 172 229 308 292 243 244 202 179 187 201 212 216 215 214 209 208 208 207 204
229 218 210 203 196 190 188 194 194 196 189 182 175 175 169 159 158 151 151 133 118 132 175 172 183 161 158 300 109 167 183 185 155 157 159 162 145 137 128 128 127 112 97 107 108 91 56 81 255 85 30 120 135 137 203 218 178 198 164 186 199 202 190 226 304 192 153 147 203 229 232 236 230 306 294 204 185 186 204 214 218 217 214 211 209 209 207 205
226 215 200 193 194 190 189 188 192 193 187 177 173 162 162 152 130 109 107 106 97 116 263 283 176 149 196 232 169 177 169 160 166 154 157 160 136 141 139 134 115 119 112 96 123 124 196 100 147 184 81 149 148 178 191 201 178 167 170 205 252 229 186 207 164 221 147 183 185 214 231 249 247 268 300 237 191 185 206 211 214 218 218 218 214 211 209 204
222 210 199 195 187 185 186 185 183 183 183 173 162 144 138 131 108 30 127 142 136 168 200 191 178 185 166 178 150 162 176 160 137 150 154 151 145 129 112 111 134 135 139 136 227 125 145 79 87 146 210 193 197 189 197 84 165 177 170 201 199 183 206 209 224 182 165 183 213 204 218 238 251 254 259 272 239 199 215 219 227 232 226 216 214 216 214 210
218 208 201 196 191 182 182 181 179 177 171 170 150 140 134 152 161 187 171 178 208 191 261 141 191 274 103 157 157 138 122 149 146 164 152 154 143 138 131 139 137 136 149 166 156 174 149 165 189 205 207 198 200 196 192 218 190 178 201 207 204 201 252 246 221 191 179 166 213 216 223 237 249 240 239 232 231 240 230 222 226 225 227 229 215 212 214 212
210 198 196 199 189 187 182 179 175 169 163 157 152 149 189 167 162 191 164 179 200 223 228 344 228 212 324 146 143 150 149 177 161 162 165 150 144 139 157 147 157 163 189 153 142 128 167 189 212 205 197 198 200 193 187 249 304 190 197 200 219 188 222 234 208 200 186 172 244 230 235 240 245 248 239 235 218 226 221 226 230 228 226 226 227 222 215 218
204 196 191 188 185 189 189 184 174 159 161 159 168 173 169 194 172 98 139 190 208 209 230 239 305 275 329 187 166 154 151 155 169 160 160 158 157 153 166 168 171 178 157 128 122 155 191 210 205 190 187 186 195 188 193 222 228 224 205 204 219 227 205 318 297 108 182 184 270 243 231 247 253 257 253 234 219 222 218 216 220 222 228 230 228 226 220 216
199 193 189 183 182 185 187 184 170 162 166 166 176 186 198 156 29 132 116 72 200 175 213 218 232 263 255 236 181 147 150 164 161 169 170 162 162 174 161 171 177 154 152 157 168 171 200 220 165 168 167 169 177 187 195 217 239 211 226 184 213 197 169 266 284 2 210 155 221 40 296 273 260 260 256 247 231 231 223 221 225 217 222 223 222 216 211 209
192 186 182 182 180 180 180 178 171 167 172 171 178 184 173 152 151 152 145 198 173 283 202 205 203 218 224 204 190 163 158 170 157 179 173 164 168 150 165 170 164 159 174 177 178 182 193 132 150 160 170 172 177 182 190 193 220 225 212 215 215 221 209 176 202 116 354 341 63 357 317 284 232 262 265 251 236 236 234 233 239 235 231 227 230 228 208 205
174 169 176 177 185 180 181 172 174 171 160 173 180 130 162 166 242 161 109 113 292 292 158 273 178 218 215 267 190 177 170 155 176 161 174 158 154 149 182 162 160 178 171 178 168 181 188 147 151 170 178 179 175 184 195 182 205 221 229 213 211 182 105 111 119 110 45 307 278 124 326 278 250 232 244 258 261 255 242 236 238 232 230 233 238 232 230 228
152 156 169 178 179 182 170 173 172 162 168 180 160 181 164 172 201 147 115 97 235 202 140 212 119 227 143 219 187 154 139 183 170 171 165 169 151 155 142 187 172 172 172 167 175 195 174 159 166 170 179 186 189 191 189 180 193 193 225 188 201 135 131 135 143 108 214 220 277 153 201 273 316 277 251 254 261 251 264 237 244 241 235 222 222 220 222 221
152 157 170 180 175 162 158 251 148 144 167 174 164 150 162 162 153 124 156 244 242 168 158 117 171 215 168 182 174 137 181 164 123 167 167 160 164 155 155 163 170 173 153 146 162 207 160 169 172 178 178 185 189 200 189 182 171 211 219 165 183 114 132 172 148 176 200 240 302 23 138 245 289 261 229 237 249 256 251 246 239 232 231 231 228 221 219 219
155 154 157 162 158 161 122 145 151 167 172 149 154 168 142 163 118 47 222 194 230 112 185 162 199 130 186 178 180 182 123 126 152 203 169 157 127 173 174 170 178 162 159 159 197 156 169 173 174 172 184 190 200 187 160 175 176 215 193 169 188 169 161 153 130 161 203 76 279 237 9 259 245 274 293 233 257 265 257 246 237 229 226 226 227 225 223 220
159 149 140 140 146 120 115 126 147 143 141 137 133 152 152 141 145 163 173 210 274 115 282 167 97 154 171 170 190 181 149 168 155 163 173 158 91 148 172 179 168 162 169 176 174 127 170 175 182 170 174 198 184 163 168 177 189 257 122 77 80 78 77 115 103 107 353 85 246 186 175 227 261 279 263 260 224 257 254 244 238 232 225 223 224 227 226 224
156 150 144 138 128 91 75 89 107 151 137 138 138 145 155 111 100 187 182 234 83 158 173 199 172 167 165 181 181 174 153 180 121 158 165 159 94 21 77 148 158 155 166 178 92 172 151 172 158 163 189 191 167 193 181 183 170 149 97 82 62 51 46 36 70 86 47 255 244 163 201 174 286 208 232 159 220 228 262 260 244 239 237 232 225 221 222 217
149 141 140 139 146 155 129 137 152 154 144 136 135 134 126 128 187 180 199 180 70 236 153 192 159 151 173 183 172 180 156 145 148 148 142 126 107 37 123 97 337 139 149 118 123 178 122 145 178 205 177 135 148 194 332 155 148 130 104 126 86 18 17 34 357 44 182 257 146 178 181 172 234 285 269 227 247 222 219 241 240 239 233 230 226 225 224 213
147 145 146 149 153 156 154 160 156 152 146 140 130 141 152 160 224 209 177 328 155 199 166 142 166 165 175 181 171 169 163 142 157 160 153 167 151 154 185 162 168 152 164 163 184 127 162 179 162 162 162 157 174 153 16 136 164 126 124 131 149 198 69 263 102 224 212 229 246 224 168 90 238 223 259 271 222 245 231 219 229 234 240 235 232 226 221 208
146 139 137 126 140 107 93 127 145 146 148 150 137 153 157 176 203 172 139 151 233 107 206 330 164 182 171 181 187 167 153 161 159 169 160 164 160 181 179 171 177 174 162 168 159 163 203 170 182 173 155 184 160 174 150 161 195 151 163 161 156 137 172 216 218 318 312 281 269 145 120 250 278 277 220 260 255 221 220 226 231 223 224 234 232 223 212 203
136 134 124 135 121 119 123 128 136 147 150 157 146 150 196 192 198 66 117 172 145 112 170 159 188 253 174 186 177 161 164 168 162 167 168 166 169 167 188 189 177 176 156 163 171 167 154 193 210 162 206 168 180 186 178 164 165 169 117 163 175 160 161 207 171 197 212 219 238 253 123 236 150 252 220 227 250 272 246 227 228 232 219 193 210 161 160 176
129 118 112 93 85 110 125 139 138 152 144 150 146 169 188 194 168 170 154 159 119 67 104 185 189 241 185 182 173 182 165 157 169 155 179 163 180 173 175 175 191 172 138 151 190 163 188 206 175 180 90 170 179 156 116 111 96 252 141 78 151 209 125 151 200 154 207 175 248 206 211 188 187 243 282 251 279 277 238 233 242 257 242 178 144 163 173 186
117 110 106 103 111 129 122 126 132 139 140 129 143 176 189 203 189 190 183 137 146 143 142 121 160 303 198 181 178 177 211 152 168 157 178 183 173 181 179 171 180 182 166 175 151 174 156 212 164 166 193 174 178 147 170 147 175 196 146 199 195 92 88 90 9 270 95 47 247 167 295 282 299 287 262 277 275 271 243 237 217 223 228 190 191 196 195 194
105 118 85 104 96 118 126 127 118 119 126 138 141 183 90 1 315 49 165 170 160 145 141 164 205 151 205 187 176 178 174 148 169 165 171 166 185 186 178 188 182 179 184 159 172 237 166 145 183 158 144 244 155 161 168 175 119 98 174 199 91 60 119 158 217 16 168 194 263 153 227 283 357 274 250 221 239 254 242 230 225 226 203 202 215 211 208 205
124 95 91 90 116 110 104 116 107 92 92 127 190 153 78 132 351 309 355 150 145 156 137 183 125 132 258 157 197 176 157 167 176 165 163 176 189 171 173 179 194 189 177 172 152 181 118 92 295 254 151 140 79 104 119 260 355 174 180 144 148 196 215 226 137 229 182 227 270 265 239 255 207 239 17 239 229 244 255 237 225 228 209 214 224 226 230 236
113 121 112 125 74 106 106 110 100 105 99 123 215 182 294 169 133 332 352 302 186 136 158 175 117 234 191 213 190 184 172 177 169 177 155 186 165 182 183 167 186 190 184 154 161 155 165 131 122 328 153 175 150 156 183 184 327 37 117 175 187 95 219 158 196 164 129 246 264 290 116 242 201 214 186 236 216 228 241 248 222 209 202 210 220 218 214 212
134 113 105 123 103 104 105 103 97 104 129 184 159 128 118 142 256 295 319 331 158 169 196 139 208 128 159 183 234 180 202 176 174 178 177 168 178 160 181 187 174 185 177 176 152 162 169 126 159 178 285 149 185 197 188 179 172 162 177 186 191 184 260 122 179 153 173 185 199 267 290 261 253 207 187 218 208 207 214 226 227 207 210 215 219 210 209 210
106 93 91 129 150 124 101 97 112 171 161 179 89 143 61 182 347 312 319 322 77 12 160 140 151 140 179 137 151 321 223 196 184 179 178 171 178 166 195 175 162 179 166 163 133 173 103 172 164 141 159 199 194 199 198 185 182 188 184 190 180 164 139 166 230 170 155 156 225 175 247 268 272 191 203 211 215 209 210 207 218 214 214 217 222 217 203 204
129 110 138 172 179 136 128 118 154 139 131 134 176 142 142 95 63 348 314 320 62 99 9 88 51 108 88 74 115 66 13 230 192 185 190 178 188 185 177 179 175 167 167 180 172 182 149 119 130 170 180 183 184 166 317 177 188 172 173 194 176 165 136 180 201 215 190 226 121 157 289 273 247 244 236 226 218 211 210 192 217 218 216 217 221 215 209 200
85 84 104 152 200 153 128 97 126 123 121 146 88 70 75 84 84 322 359 336 54 357 72 68 188 115 323 118 113 88 56 320 216 200 175 186 193 192 170 177 164 171 172 167 147 195 76 102 108 68 47 26 20 358 30 36 138 130 202 143 157 192 192 204 203 173 190 221 234 239 263 251 290 238 321 261 229 220 199 184 205 217 207 208 187 183 183 188
101 109 108 86 30 11 146 157 156 161 149 111 109 149 151 102 113 38 22 354 50 55 114 137 77 17 139 162 101 127 262 130 278 215 206 191 203 172 163 175 165 172 178 183 167 187 147 227 133 133 125 136 5 0 315 340 177 198 192 196 193 194 198 190 112 114 191 220 185 180 229 251 260 344 333 36 42 139 186 206 178 166 216 191 186 184 186 180
109 69 60 75 11 352 157 246 149 143 147 143 137 133 119 54 71 132 145 56 26 34 89 70 140 157 104 134 103 108 47 123 241 338 356 210 206 140 164 177 175 179 193 167 167 172 155 155 154 164 165 169 180 188 192 188 199 196 199 194 197 190 189 178 210 177 221 246 159 205 243 232 322 332 350 340 359 329 301 305 272 233 182 190 203 207 206 186
148 120 140 104 204 62 358 1 121 139 140 141 97 137 121 129 101 70 57 78 68 53 53 102 49 92 110 129 105 113 123 319 101 318 358 278 187 178 171 178 180 180 183 150 141 159 126 167 191 183 183 190 188 186 193 168 146 189 176 188 197 202 194 197 189 217 221 185 186 222 234 257 229 238 258 274 248 224 219 240 209 211 245 237 214 197 192 193
95 101 148 144 99 65 177 359 94 126 147 161 118 145 108 132 147 124 337 98 319 147 83 71 194 133 161 138 135 108 139 110 356 84 335 320 290 278 175 179 181 185 168 146 153 127 105 174 200 182 203 199 159 121 114 146 180 186 182 196 190 187 178 193 198 218 205 201 259 245 238 239 236 215 241 245 247 259 270 264 254 254 234 204 209 217 222 225
87 78 71 114 107 160 120 292 146 145 161 112 135 132 144 132 147 131 59 22 146 307 83 47 44 57 96 108 151 124 154 100 114 154 324 312 311 301 168 182 186 179 162 156 175 168 164 186 190 186 201 193 149 144 153 180 186 181 188 183 190 184 182 197 214 226 197 203 227 231 228 238 249 201 215 220 204 213 217 219 215 208 220 235 222 218 214 219
98 107 94 82 86 113 137 173 156 128 148 153 91 144 151 130 139 143 159 144 98 123 317 103 118 110 90 50 51 129 157 144 218 175 151 124 3 284 155 177 202 179 176 150 185 216 150 209 178 183 191 184 162 160 172 178 178 189 193 193 191 187 193 199 211 215 211 218 227 241 237 237 243 229 212 216 197 213 233 196 151 180 218 210 212 218 220 221
106 130 145 68 95 132 142 145 148 114 142 184 88 212 144 144 125 96 26 98 114 100 281 72 106 115 90 83 17 86 51 29 130 147 195 113 67 4 257 83 349 206 174 175 167 252 181 190 163 171 185 190 181 173 175 175 176 195 194 195 194 193 199 207 214 219 216 228 234 239 242 249 250 232 220 201 201 222 126 183 201 214 214 203 205 220 225 223
134 126 139 122 104 128 124 133 90 139 143 129 122 203 108 152 136 153 138 194 110 136 122 124 124 102 84 78 71 72 59 69 67 65 89 113 129 10 42 354 355 201 178 164 173 307 174 210 130 148 178 198 202 184 183 177 183 190 192 193 192 192 204 208 214 215 206 213 224 240 253 249 252 140 191 187 194 207 218 215 212 221 214 202 205 220 223 223
68 32 89 106 90 136 128 157 160 126 170 240 131 187 124 175 163 125 76 3 63 120 142 121 115 96 68 67 61 223 157 129 147 128 119 102 122 138 148 106 26 348 192 178 170 174 188 157 161 167 188 202 197 185 172 159 162 197 200 192 194 202 205 207 216 219 216 205 219 223 230 233 149 149 203 179 180 207 214 213 210 216 212 200 205 215 221 222